     2              OBSERVATION DATA    GPS                 RINEX VERSION / TYPE
teqc 1997Sep10 19970911 20:52:47UTC                         PGM / RUN BY / DATE
                                                            COMMENT
BIT 2 OF LLI FLAGS DATA COLLECTED UNDER A-S CONDITION       COMMENT
BIT 2 OF LLI FLAGS DATA COLLECTED UNDER A-S CONDITION       COMMENT
Original Marker Name: unknown                               COMMENT
Campaign Name: Southern California GPS Survey March - A     COMMENT
4-Character Station Name: FORD                              COMMENT
6-Character Antenna Code: TI4100                            COMMENT
Vertical Measurement Point: PAE                             COMMENT
Vertical Offset to Rinex Ref. Point: 0.0000                 COMMENT
Radial Measurement Point: RRP                               COMMENT
Radial Offset to Rinex Ref. Point: 0.0000                   COMMENT
Antenna Height from Field Measurement: 1.5003 m             COMMENT
Original XYZ: 0.0000 0.0000 0.0000                          COMMENT
New XYZ position is based on association with SCEC monument COMMENT
E1D1E1Y1+0011. Position of that monument is believed to be  COMMENT
valid to within 1 m horizontally; vertical accuracy         COMMENT
should be no worse than 3-times this value.                 COMMENT
                                                            COMMENT
Revised Rinex header created by UCSD GPS archive for        COMMENT
GSAC on 16-Apr-1999 (1999:106) 23:42:12 GMT                 COMMENT
For assistance contact dagnew@ucsd.edu or hjohnson@ucsd.edu COMMENT
                                                            COMMENT
FORD DRY LAKE                                               MARKER NAME
unknown NATIONAL GEODETIC SURVEY                            OBSERVER / AGENCY
1 TI 4100 GSI TI4100                                        REC # / TYPE / VERS
2003 TI 4100                                                ANT # / TYPE
 -2246307.0000 -4819673.0000  3510472.0000                  APPROX POSITION XYZ
        1.5003        0.0000        0.0000                  ANTENNA: DELTA H/E/N
     1     1     0                                          WAVELENGTH FACT L1/2
     6    L1    L2    P1    P2    D1    D2                  # / TYPES OF OBSERV
     0                                                      INTERVAL
  1988     3    24     3    22   20.000000                  TIME OF FIRST OBS
  1988     3    24     8    25   26.000000                  TIME OF LAST OBS
     0                                                      # OF SATELLITES
                                                            END OF HEADER
 88  3 24  3 22 20.2000000  0  3G 6G 9G11
   2047973.896 9  -4062243.167 9  20026052.073    20026053.509        1792.045
      1387.234
    126084.410 8                                                      3043.628

    127757.007 8                                                      3035.056

 88  3 24  3 50 32.0800000  0  3G 6G 9G11
   -618153.648 9  -6118178.220 8  19523970.142    19523971.920        1276.296
      1000.780
  -5108395.024 8  -4000532.996 9  21643993.031    21643995.844        3062.926
      2378.985
  -4347602.873 8  -3425300.920 7  20294350.080    20294352.767        2221.018
      1736.976
 88  3 24  3 51  2.0800000  0  3G 6G 9G11
   -656553.736 9  -6148100.355 8  19516662.583    19516664.466        1282.420
       993.062
  -5199984.693 8  -4071901.494 8  21626563.314    21626566.548        3073.006
      2376.561
  -4414087.558 9  -3477107.118 8  20281697.319    20281702.186        2202.039
      1712.705
 88  3 24  3 51 32.0800000  0  3G 6G 9G11
   -694615.732 9  -6177759.038 8  19509419.744    19509422.025        1260.020
       967.182
  -5291505.477 8  -4143216.320 8  21609148.424    21609150.294        3048.381
      2378.295
  -4480088.874 9  -3528536.691 7  20269138.040    20269140.155        2204.351
      1724.965
 88  3 24  3 52  2.0800000  0  3G 6G 9G11
   -732337.954 9  -6207152.960 7  19502240.594    19502243.021        1255.036
       968.518
  -5382956.198 9  -4214476.557 8  21591744.989    21591747.621        3047.616
      2370.242
  -4545606.207 8  -3579589.136 7  20256670.323    20256673.606        2187.525
      1717.801
 88  3 24  3 52 32.0800000  0  3G 6G 9G11
   -769718.627 9  -6236280.756 9  19495127.697    19495129.893        1236.201
       972.240
  -5474335.105 9  -4285680.827 8  21574356.725    21574358.779        3044.059
      2373.510
  -4610638.285 9  -3630263.452 7  20244295.415    20244298.328        2165.245
      1672.968
 88  3 24  3 53  2.0800000  0  3G 6G 9G11
   -806755.118 9  -6265140.342 8  19488080.179    19488081.327        1223.490
       959.501
  -5565639.872 9  -4356827.364 8  21556982.003    21556984.896        3051.786
      2368.378
  -4675183.844 9  -3680558.656 7  20232011.954    20232016.346        2144.360
      1646.758
 88  3 24  3 53 32.0800000  0  3G 6G 9G11
   -843445.353 9  -6293730.126 8  19481098.858    19481099.289        1220.276
       963.882
  -5656868.760 1  -4427914.751 1  21539621.764    21539622.423        3071.682
      2379.065
  -4739241.547 8  -3730473.723 7  20219822.457    20219825.264        2141.904
      1647.877
 88  3 24  3 54  2.0800000  0  3G 6G 9G11
   -879786.858 9  -6322048.175 8  19474182.916    19474184.128        1205.372
       932.092
  -5748019.504 1  -4498941.263 1  21522277.409    21522277.124        3031.364
      2375.356
  -4802809.950 9  -3780007.529 8  20207726.287    20207729.154        2109.959
      1639.432
 88  3 24  3 54 32.0800000  0  3G 6G 9G11
   -915777.893 9  -6350093.126 8  19467334.107    19467335.933        1198.586
       931.055
  -5839090.293 9  -4569905.474 8  21504945.817    21504948.487        3028.190
      2360.331
  -4865887.914 9  -3829159.145 8  20195722.581    20195725.878        2089.441
      1626.669
 88  3 24  3 55  2.0800000  0  3G 6G 9G11
   -951415.781 9  -6377862.903 8  19460552.583    19460553.882        1182.509
       931.819
  -5930079.080 9  -4640805.786 8  21487630.536    21487633.019        3028.302
      2371.168
  -4928474.001 9  -3877927.485 9  20183813.100    20183815.825        2079.616
      1621.990
 88  3 24  3 55 32.0800000  0  3G 6G 9G11
   -986697.910 9  -6405355.469 8  19453839.324    19453840.021        1176.505
       916.701
  -6020983.117 9  -4711640.071 7  21470333.470    21470334.645        3031.946
      2367.545
  -4990566.616 8  -3926311.328 7  20171997.027    20171998.396        2072.320
      1590.300
 88  3 24  3 56  2.0800000  0  3G 6G 9G11
  -1021622.251 9  -6432569.237 8  19447193.060    19447193.914        1168.953
       901.937
  -6111800.811 9  -4782407.074 8  21453050.523    21453053.454        3026.611
      2372.535
  -5052164.742 9  -3974309.840 8  20160275.994    20160277.563        2037.631
      1583.825
 88  3 24  3 56 32.0800000  0  3G 6G 9G11
  -1056186.525 9  -6459502.433 8  19440615.450    19440617.234        1154.184
       891.864
  -6202529.960 9  -4853105.064 8  21435785.205    21435787.559        3029.984
      2360.592
  -5113266.983 9  -4021921.943 8  20148648.836    20148650.635        2024.450
      1587.516
 88  3 24  3 57  2.0800000  0  3G 6G 9G11
  -1090388.907 9  -6486153.618 9  19434105.665    19434108.694        1145.660
       895.232
  -6293168.820 9  -4923732.716 8  21418537.121    21418539.151        3016.428
      2353.340
  -5173872.668 9  -4069147.119 7  20137115.231    20137117.401        2018.126
      1579.488
 88  3 24  3 57 32.0800000  0  3G 6G 9G11
  -1124226.591 9  -6512520.643 9  19427667.716    19427669.773        1119.624
       878.760
  -6383714.544 8  -4994287.784 7  21401306.160    21401309.571        3024.937
      2343.442
  -5233979.864 9  -4115983.872 8  20125677.561    20125679.763        2001.771
      1552.999
 88  3 24  3 58  2.0800000  0  3G 6G 9G11
  -1157697.179 9  -6538601.614 8  19421297.819    19421299.518        1107.239
       861.777
  -6474164.979 9  -5064768.594 8  21384094.662    21384096.420        3014.187
      2349.972
  -5293587.380 9  -4162431.290 8  20114335.196    20114339.010        1973.510
      1547.531
 88  3 24  3 58 32.0800000  0  3G 6G 9G11
  -1190798.878 9  -6564395.144 9  19414999.105    19415000.574        1107.215
       858.006
  -6564518.527 8  -5135173.912 9  21366900.961    21366902.622        3004.004
      2343.902
  -5352694.358 9  -4208488.639 8  20103086.130    20103089.301        1959.969
      1526.310
 88  3 24  3 59  2.0800000  0  3G 6G 9G11
  -1223528.139 9  -6589898.477 8  19408771.365    19408772.505        1099.050
       843.689
  -6654771.666 9  -5205500.987 9  21349726.210    21349728.576        3009.753
      2343.100
  -5411298.651 9  -4254154.304 8  20091934.816    20091937.805        1944.316
      1509.974
 88  3 24  3 59 32.0800000  0  3G 6G 9G11
  -1255884.355 9  -6615111.102 8  19402614.422    19402615.891        1069.106
       834.635
  -6744923.578 9  -5275749.190 8  21332571.383    21332573.838        3006.787
      2353.141
  -5469400.564 9  -4299428.520 8  20080878.521    20080882.280        1920.951
      1493.005
 88  3 24  4  0  2.0800000  0  3G 6G 9G11
  -1287862.582 9  -6640029.223 8  19396528.655    19396530.196        1061.865
       830.354
  -6834969.848 9  -5345915.069 8  21315435.599    21315437.832        3010.646
      2328.435
  -5526996.287 9  -4344308.286 8  20069918.273    20069920.608        1925.480
      1491.818
 88  3 24  4  0 32.0800000  0  3G 6G 9G11
  -1319461.890 9  -6664652.046 8  19390514.778    19390516.849        1050.566
       816.149
  -6924909.260 7  -5415997.671 8  21298320.221    21298323.393        2989.905
      2341.919
  -5584086.019 9  -4388793.745 8  20059053.295    20059057.347        1905.536
      1475.072
 88  3 24  4  1  2.0800000  0  3G 6G 9G11
  -1350680.327 9  -6688978.071 9  19384575.119    19384576.187        1025.973
       815.770
  -7014739.880 9  -5485995.507 9  21281226.467    21281229.470        2997.297
      2328.249
  -5640668.779 9  -4432884.184 8  20048286.619    20048289.505        1886.517
      1466.733
 88  3 24  4  1 32.0800000  0  3G 6G 9G11
  -1381515.210 9  -6713005.253 9  19378707.424    19378708.808        1032.065
       798.825
  -7104459.098 9  -5555906.541 9  21264153.377    21264155.557        2994.467
      2341.553
  -5696743.355 8  -4476578.634 8  20037615.981    20037618.213        1869.971
      1464.595
 88  3 24  4  2  2.0800000  0  3G 6G 9G11
  -1411964.924 9  -6736732.295 8  19372912.199    19372913.925        1015.837
       781.675
  -7194065.375 9  -5625729.578 8  21247102.648    21247104.038        2997.050
      2342.621
  -5752309.204 9  -4519876.652 8  20027041.615    20027045.330        1861.175
      1426.585
 88  3 24  4  2 32.0800000  0  3G 6G 9G11
  -1442027.000 8  -6760157.287 9  19367192.611    19367193.965         992.241
       774.989
  -7283556.006 9  -5695462.502 8  21230072.983    21230075.034        2983.621
      2332.630
  -5807365.156 8  -4562777.364 9  20016565.881    20016569.059        1839.086
      1426.039
 88  3 24  4  3  2.0800000  0  3G 6G 9G11
  -1471699.368 9  -6783278.602 8  19361544.967    19361547.424         979.881
       772.877
  -7372928.947 9  -5765103.726 8  21213065.998    21213067.205        2972.768
      2325.360
  -5861910.432 8  -4605280.127 8  20006185.322    20006188.608        1793.879
      1418.172
 88  3 24  4  3 32.0800000  0  3G 6G 9G11
  -1500979.765 9  -6806094.490 8  19355973.168    19355975.625         978.956
       755.584
  -7462181.854 9  -5834651.399 9  21196082.170    21196083.674        2961.006
      2313.118
  -5915943.779 8  -4647384.011 8  19995902.581    19995906.461        1807.826
      1398.133
 88  3 24  4  4  2.0800000  0  3G 6G 9G11
  -1529866.165 9  -6828603.361 9  19350476.838    19350478.336         968.478
       752.856
  -7551312.589 9  -5904103.888 8  21179120.415    21179121.615        2977.322
      2310.061
  -5969464.863 8  -4689088.715 8  19985718.369    19985720.875        1772.731
      1384.369
 88  3 24  4  4 32.0800000  0  3G 6G 9G11
  -1558356.223 9  -6850803.405 8  19345054.773    19345056.628         948.023
       737.415
  -7640318.945 9  -5973459.457 9  21162183.292    21162183.945        2966.285
      2309.260
  -6022472.631 8  -4730393.444 7  19975631.192    19975634.608        1764.263
      1385.251
 88  3 24  4  5  2.0800000  0  3G 6G 9G11
  -1586447.333 8  -6872692.562 8  19339709.952    19339710.734         936.181
       732.524
  -7729197.805 9  -6042715.673 9  21145270.181    21145271.832        2953.430
      2308.732
  -6074965.305 9  -4771296.793 7  19965642.149    19965644.559        1737.261
      1366.927
 88  3 24  4  5 32.0800000  0  3G 6G 9G11
  -1614137.596 9  -6894269.394 9  19334440.162    19334443.248         922.537
       714.828
  -7817947.450 9  -6111871.204 8  21128381.378    21128383.266        2969.555
      2302.816
  -6126942.350 9  -4811798.367 8  19955751.891    19955755.026        1720.707
      1342.320
 88  3 24  4  6  2.0800000  0  3G 6G 9G11
  -1641424.164 9  -6915531.650 8  19329247.906    19329249.418         901.126
       712.342
  -7906564.920 9  -6180923.732 9  21111517.798    21111519.265        2953.199
      2301.797
  -6178402.445 9  -4851897.115 8  19945958.635    19945961.782        1709.144
      1324.810
 88  3 24  4  6 32.0800000  0  3G 6G 9G11
  -1668305.039 9  -6936477.792 9  19324132.689    19324135.131         895.568
       688.114
  -7995047.724 9  -6249871.352 8  21094680.425    21094682.627        2955.671
      2307.265
  -6229344.932 8  -4891592.532 8  19936264.862    19936267.759        1695.029
      1308.250
 88  3 24  4  7  2.0800000  0  3G 6G 9G11
  -1694778.560 9  -6957106.485 8  19319095.173    19319096.929         862.570
       693.763
  -8083394.197 9  -6318712.739 8  21077868.811    21077870.451        2940.879
      2304.643
  -6279769.562 8  -4930884.447 7  19926669.536    19926671.957        1679.663
      1299.308
 88  3 24  4  7 32.0800000  0  3G 6G 9G11
  -1720842.207 8  -6977415.825 9  19314135.214    19314135.811         875.082
       689.289
  -8171601.679 8  -6387445.787 8  21061082.915    21061085.469        2924.755
      2300.442
  -6329675.046 9  -4969771.801 8  19917173.042    19917175.723        1661.641
      1303.994
 88  3 24  4  8  2.0800000  0  3G 6G 9G11
  -1746492.961 9  -6997403.421 8  19309253.701    19309255.400         856.015
       657.965
  -8259666.750 9  -6456067.891 8  21044325.285    21044326.996        2933.136
      2286.784
  -6379059.595 9  -5008253.248 8  19907774.700    19907778.405        1641.505
      1285.023
 88  3 24  4  8 32.0800000  0  3G 6G 9G11
  -1771728.209 9  -7017067.250 9  19304451.465    19304453.621         840.146
       646.097
  -8347586.574 8  -6524576.810 9  21027594.538    21027595.130        2924.515
      2286.567
  -6427922.478 9  -5046328.202 7  19898477.394    19898479.237        1605.294
      1269.675
 88  3 24  4  9  2.0800000  0  3G 6G 9G11
  -1796545.490 9  -7036405.386 7  19299728.495    19299730.938         824.365
       650.602
  -8435358.520 8  -6592970.505 8  21010892.516    21010895.250        2927.195
      2275.767
  -6476262.517 9  -5083995.744 7  19889276.669    19889280.242        1616.881
      1247.989
 88  3 24  4  9 32.0800000  0  3G 6G 9G11
  -1820942.964 9  -7055416.401 8  19295087.124    19295088.179         792.316
       624.386
  -8522980.319 9  -6661247.196 8  20994218.504    20994219.238        2921.557
      2287.760
  -6524079.276 9  -5121255.527 8  19880178.769    19880182.338        1603.539
      1225.495
 88  3 24  4 10  2.0800000  0  3G 6G 9G11
  -1844918.170 9  -7074098.383 8  19290525.539    19290525.563         779.621
       612.816
  -8610449.380 9  -6729404.873 8  20977573.222    20977575.131        2909.388
      2273.742
  -6571371.752 8  -5158106.786 8  19871179.699    19871181.376        1567.974
      1226.707
 88  3 24  4 10 32.0800000  0  3G 6G 9G11
  -1868469.442 8  -7092450.031 9  19286042.372    19286044.800         780.115
       603.085
  -8697764.182 9  -6797442.352 8  20960957.731    20960959.594        2914.340
      2265.993
  -6618139.524 9  -5194549.189 8  19862280.888    19862281.047        1563.779
      1221.052
 88  3 24  4 11  2.0800000  0  3G 6G 9G11
  -1891594.007 9  -7110469.165 8  19281642.254    19281643.365         773.688
       596.915
  -8784920.691 9  -6865356.468 9  20944372.274    20944374.064        2902.371
      2266.559
  -6664381.371 9  -5230581.770 7  19853479.980    19853482.668        1553.349
      1193.941
 88  3 24  4 11 32.0800000  0  3G 6G 9G11
  -1914289.708 9  -7128154.124 9  19277323.070    19277325.455         753.505
       588.775
  -8871917.058 8  -6933145.806 9  20927816.639    20927819.563        2902.546
      2272.412
  -6710096.737 9  -5266204.127 8  19844780.901    19844784.066        1507.823
      1178.183
 88  3 24  4 12  2.0800000  0  3G 6G 9G11
  -1936554.221 9  -7145503.084 8  19273087.113    19273088.510         744.263
       573.290
  -8958750.136 9  -7000807.900 8  20911293.705    20911295.201        2892.498
      2255.479
  -6755284.522 9  -5301415.370 7  19836181.383    19836183.614        1494.785
      1169.571
 88  3 24  4 12 32.0800000  0  3G 6G 9G11
  -1958385.400 9  -7162514.394 9  19268932.343    19268933.598         716.544
       562.279
  -9045417.681 7  -7068341.023 9  20894801.381    20894803.300        2892.379
      2248.644
  -6799944.353 8  -5336215.223 7  19827683.196    19827686.913        1492.512
      1145.530
 88  3 24  4 13  2.0800000  0  3G 6G 9G11
  -1979780.546 9  -7179185.926 9  19264861.113    19264863.470         709.590
       553.549
  -9131916.484 9  -7135742.648 8  20878340.861    20878343.005        2862.004
      2244.941
  -6844074.891 8  -5370602.636 8  19819284.731    19819288.551        1473.597
      1139.826
